TJS-3

Last updated on June 26, 2019, 3:46 a.m. UTC

1 43874U 18110A   19176.72920873 -.00000043  00000-0  00000+0 0  9996
2 43874   0.0637 260.5811 0003319 264.6451 162.1135  1.00981012  1924
UTC
Height (km)
Latitude
Longitude
Inclination
Orbital Period
UTC large
Height (km)
Speed (km/s)
/
Latitude / Longitude
Inclination (degrees)
Orbital Period (minutes)
Azimuth
Elevation
Range (km)
Doppler Factor
iOS Compass Heading
iOS Angle

Next 30 passes for location: Hong Kong

Rise time Rise Azimuth (degrees) Set time Set Azimuth (degrees) Duration Max altitude (degrees)

No matching passes for this satellites